SCP
0 0 0 0 0 0 1 0 0 0 0 0 0 0 0 0 0 0 0 0 0 0 0 1 0 0 0 0 0 0 0 0 0 0 0 0 0 0 0 0 0 0 0 0 0 0 0
0 0 0 0 0 0 0 0 0 0 0 0 0 0 0 0 0 0 0 0 0 0 0 1 0 0 0 0 0 0 -0 0 0 0 0 0 0 0 0 0 0 0 0 0 0 0 0
0 0 0 0 0 0 0 -0 0 0 0 0 0 0 0 0 0 0 0 0 0 0 0 0 0 0 0 0 0 0 0 0 0 0 0 0 0 0 0 0 0 0 0 0 0 0 0
0 0 0 0 0 0 0 0 0 0 0 0 0 0 0 0 0 0 0 0 0 0 0 0 0 0 0 0 0 0 0 0 0 0 0 0 0 0 0 0 0 0 0 0 0 0 0
0 0 0 0 0 0 0 0 0 1 0 0 0 0 0 0 0 0 0 0 0 0 0 0 0 0 0 0 0 0 0 0 0 0 0 0 0 0 0 0 0 0 0 0 0 0 0
0 0 0 0 0 0 0 0 0 0 0 0 0 0 0 0 0 0 0 0 0 0 0 0 0 0 0 0 0 0 0 0 0 0 0 0 0 0 0 0 0 0 0 0 0 0 0
-0 0 -0 0 0 0 0 0 -0 0 0 0 0 0 0 1 1 1 0 0 0 0 0 0 0 0 0 0 0 0 0 0 0 0 0 0 0 0 0 0 0 0 0 0 0 0 0
0 -0 0 0 0 0 0 0 -0 -0 0 0 0 0 0 1 1 1 0 0 0 0 0 0 0 0 0 0 0 0 0 0 0 0 0 0 0 0 0 0 0 0 0 0 0 0 0
-0 0 0 0 0 0 0 0 -0 -0 0 0 0 0 0 0 1 1 0 0 0 0 0 0 0 0 0 0 0 0 0 0 0 0 0 0 0 0 0 0 0 0 0 0 0 0 0
0 0 0 0 0 0 0 0 -0 -0 0 0 0 0 0 0 1 0 0 0 0 0 0 0 0 0 0 0 0 0 0 0 0 0 0 0 0 0 0 0 0 0 0 0 0 0 0
0 0 0 -0 0 0 0 0 0 -0 0 0 0 0 0 0 0 0 0 0 0 0 0 0 0 0 0 0 0 0 0 0 0 0 0 0 0 0 0 0 0 0 0 0 0 0 0
0 0 0 0 0 0 0 0 0 0 0 0 0 0 0 0 0 0 0 0 0 0 0 0 0 0 0 0 0 0 0 0 0 0 0 0 0 0 0 0 0 0 0 0 0 0 0
0 0 0 0 0 0 0 0 0 -0 0 0 0 0 0 0 0 0 0 0 0 0 0 0 0 0 0 0 0 0 0 0 0 0 0 0 0 0 0 0 0 0 0 0 0 0 0
0 0 0 0 0 0 0 0 0 0 0 0 0 0 0 0 0 0 0 0 0 0 0 0 0 0 0 0 0 0 0 0 0 0 0 0 0 0 0 0 0 0 0 0 0 0 0
0 0 0 0 0 0 0 0 0 0 0 0 0 0 0 0 0 0 0 0 0 0 0 0 0 0 0 0 0 0 0 0 0 0 0 0 0 0 0 0 0 0 0 0 0 0 0
0 0 0 0 0 0 0 0 0 0 0 0 0 0 0 0 0 0 0 0 0 0 0 0 0 0 0 0 0 0 0 0 0 0 0 0 0 0 0 0 0 0 0 0 0 0 0
0 0 0 0 0 0 0 0 0 0 0 0 0 0 0 0 0 0 0 0 0 0 0 0 0 0 0 0 0 0 0 0 0 0 0 0 0 0 0 0 0 0 0 0 0 0 0
0 0 0 0 0 0 0 0 0 0 0 0 0 0 0 0 0 0 0 0 0 0 0 0 0 -0 -0 0 0 0 0 0 0 0 0 0 0 0 0 0 0 0 0 0 0 0 0
0 0 0 0 -0 0 0 0 0 0 0 0 0 0 0 0 0 0 0 0 0 0 0 0 0 0 -0 -0 0 0 0 0 0 0 0 0 0 0 0 0 0 0 0 0 0 0 0
0 0 0 0 1 0 0 0 0 0 0 0 0 0 0 0 0 0 0 0 0 0 0 0 0 -0 -0 -0 -0 -0 0 0 0 0 0 0 0 0 0 0 0 0 0 0 0 0 0
0 0 0 0 0 0 0 0 0 0 0 0 0 0 0 0 0 0 0 0 0 0 0 0 0 0 -0 -0 -0 -0 -0 -0 0 0 0 0 0 0 0 0 0 0 0 0 0 0 0
0 0 0 0 0 0 0 0 0 0 0 0 0 0 0 0 0 0 0 0 0 0 0 0 0 0 0 -0 -0 -0 -0 0 0 0 0 0 0 0 0 0 0 0 0 0 0 0 0
0 0 0 0 0 0 0 0 0 0 0 0 0 0 0 0 0 0 0 0 0 0 0 0 0 0 0 -0 0 0 -0 -0 0 0 0 0 0 0 0 0 0 0 0 0 0 0 0
0 0 0 0 0 0 0 0 0 0 0 0 0 0 0 0 0 0 0 0 0 0 0 0 0 0 0 0 0 0 -0 -0 -0 0 0 0 0 0 0 0 0 0 0 0 0 0 0
0 0 0 0 0 0 -0 -0 0 0 0 0 0 0 0 0 0 0 0 0 0 0 0 0 0 0 0 0 0 -0 -0 -0 -0 0 0 0 0 0 0 0 0 0 0 0 0 0 0
0 0 -0 0 0 0 0 0 0 0 0 0 0 0 0 0 0 0 0 0 0 0 0 0 0 0 -0 0 0 -0 -0 -0 0 0 0 0 0 0 0 0 0 0 0 0 0 0 0
0 0 0 0 0 0 0 0 0 0 0 0 0 0 0 0 0 0 0 0 0 0 0 0 -0 -0 0 0 0 -0 -0 0 0 0 0 0 0 0 0 0 0 0 0 0 0 0 0
0 0 0 0 0 0 0 0 0 0 0 0 0 0 0 0 0 0 0 0 0 0 0 0 0 0 0 0 0 0 0 0 0 0 0 0 0 0 0 0 0 0 0 0 0 0 0
0 0 0 0 0 0 0 0 0 0 0 0 0 0 0 0 0 0 0 0 0 0 0 0 0 -0 0 0 0 0 0 0 0 0 0 0 0 0 0 0 0 0 0 0 0 0 0
Wind_Speed_500mb
83 85 90 92 92 92 119 111 103 97 91 87 82 82 76 73 70 65 62 59 55 53 55 52 54 48 42 50 50 31 21 56 57 50 46 41 44 16 10 16 16 6 7 18 32 25 13
89 89 87 98 92 104 94 115 109 102 98 90 87 86 80 75 73 67 65 64 54 50 49 48 47 48 48 28 39 65 47 56 62 60 51 52 35 34 15 16 16 19 24 12 20 41 19
90 89 89 89 90 95 99 92 109 113 102 95 93 89 83 75 70 65 60 58 60 54 49 43 37 52 47 60 17 59 36 55 71 67 63 58 31 45 15 8 17 10 8 6 19 18 10
86 88 88 98 95 84 105 84 90 113 104 98 97 91 88 80 71 65 62 54 50 52 48 43 36 36 37 66 33 38 52 25 64 63 60 55 52 35 18 6 9 10 9 8 9 22 16
80 86 87 84 78 97 78 78 76 123 111 104 100 93 89 81 73 65 63 55 48 46 44 37 38 32 18 52 57 47 70 53 41 62 57 52 52 15 21 11 2 10 9 11 7 32 7
84 83 80 89 88 81 100 75 75 106 117 112 99 94 89 84 74 65 60 53 41 37 37 34 26 17 38 47 69 70 58 65 56 54 46 38 30 10 11 15 25 11 24 9 17 13 12
96 90 85 85 83 83 83 93 105 76 107 111 97 95 92 87 78 69 65 54 37 19 58 34 26 13 26 43 47 70 59 52 41 54 23 32 18 38 54 38 15 15 12 15 7 10 9
99 103 93 93 90 89 87 83 96 71 87 112 98 98 94 89 81 76 73 74 66 25 23 52 20 62 14 10 26 57 75 40 26 35 33 15 42 57 26 25 23 12 17 20 7 11 14
117 107 108 98 102 95 86 87 91 89 80 121 102 101 95 92 82 80 83 71 57 34 13 23 64 34 25 41 16 58 73 64 23 35 44 41 43 35 32 28 31 31 26 10 3 5 3
81 110 120 106 102 104 88 87 84 88 83 112 106 104 99 92 82 86 81 70 62 24 8 8 22 44 44 26 18 43 78 59 17 43 44 25 41 44 36 37 28 39 11 8 7 7 7
65 79 123 112 111 96 94 86 86 92 94 110 109 104 104 104 77 90 81 72 50 26 7 13 19 20 63 33 19 46 64 71 46 26 20 38 37 45 50 57 45 21 19 12 5 5 1
42 69 98 101 102 96 97 87 81 84 99 116 113 107 103 92 67 80 71 70 55 10 15 8 19 31 34 54 20 16 45 72 48 35 34 19 21 24 16 8 19 13 11 8 4 3 16
45 66 82 99 101 99 96 89 87 78 93 115 113 106 106 96 80 81 85 73 14 14 6 10 12 29 48 35 43 18 34 46 24 25 24 47 28 11 38 22 11 18 18 7 14 11 20
28 58 76 91 92 95 94 92 81 75 115 115 109 107 95 90 89 96 86 20 14 10 15 3 9 22 43 26 40 49 29 45 54 36 13 28 20 38 35 36 31 58 45 11 18 15 13
32 51 64 80 84 87 85 82 82 103 121 118 111 100 91 77 92 94 76 30 16 14 16 17 4 18 24 35 15 37 57 53 49 35 21 24 20 39 30 13 30 28 31 19 11 5 6
45 55 61 69 77 80 90 91 79 132 128 124 98 90 76 82 95 93 23 16 8 8 8 7 15 14 19 31 29 40 39 46 44 54 40 13 14 44 12 13 2 30 32 21 4 10 10
47 51 62 70 74 81 91 78 124 133 133 118 90 39 84 99 95 52 26 13 8 15 15 11 13 12 7 13 32 25 24 27 58 45 48 11 7 14 23 32 40 17 33 17 10 11 11
49 56 66 74 87 82 97 131 137 134 125 110 48 10 96 90 13 4 9 14 12 11 26 4 4 9 12 12 4 39 39 38 61 63 66 58 16 26 55 10 3 41 39 40 24 32 7
68 63 39 93 98 84 125 137 134 135 123 94 27 24 68 72 13 10 2 6 13 16 14 13 13 13 11 12 9 21 29 43 39 51 50 33 14 14 19 7 7 29 33 45 22 7 26
61 76 93 115 119 117 127 123 131 119 94 74 35 10 16 20 9 15 12 5 7 11 8 9 9 15 13 15 12 11 9 16 46 59 91 49 14 47 33 59 47 36 66 55 48 30 46
60 64 81 98 128 124 111 129 120 98 82 65 13 5 11 15 12 10 8 15 13 12 12 30 9 23 13 10 14 18 19 11 43 66 59 32 38 34 47 37 28 43 49 49 55 63 33
53 62 65 65 103 97 101 110 112 93 66 39 14 16 17 8 36 13 13 12 18 6 17 11 14 11 23 31 29 12 15 15 36 37 52 25 20 13 9 19 43 46 43 50 46 57 44
51 52 60 64 91 83 89 101 96 79 50 18 20 33 30 19 14 16 10 9 14 11 13 14 14 23 36 35 45 50 39 36 33 34 50 19 17 28 37 9 23 19 49 56 57 57 58
40 49 52 59 67 78 88 81 82 61 32 24 43 35 15 8 18 19 8 18 13 13 12 6 30 24 12 30 39 44 53 50 31 41 48 29 25 12 10 21 30 16 34 48 61 59 57
40 43 45 55 62 61 65 82 69 49 27 25 40 18 10 5 10 5 21 6 18 29 25 21 36 37 43 29 18 20 8 8 26 36 52 50 31 7 13 23 6 9 17 60 47 64 58
32 46 49 58 58 57 59 68 73 54 34 36 28 26 17 11 11 9 10 14 8 6 8 14 45 49 30 10 12 13 14 10 13 15 30 41 44 19 11 16 28 44 19 40 7 38 37
51 55 51 51 53 50 49 52 60 62 42 20 13 17 13 11 9 17 8 11 10 9 7 10 11 9 55 13 12 12 13 10 17 22 20 29 22 27 19 7 14 13 25 66 26 40 47
51 53 51 61 48 41 39 42 38 38 42 36 22 16 4 5 12 20 18 17 11 8 4 3 12 14 9 16 11 8 7 11 7 14 29 16 19 9 8 6 26 28 50 49 35 15 8
53 52 59 56 41 38 34 31 28 29 28 27 22 25 22 10 5 8 17 19 21 21 15 6 11 10 9 9 7 5 6 8 11 16 6 15 17 16 22 26 2 78 20 34 36 17 28
Wind_Direction_500mb
263 258 251 250 248 244 239 234 230 230 227 226 224 219 217 215 217 216 214 214 210 207 208 208 208 201 195 211 219 218 225 207 202 199 193 189 181 179 168 172 153 234 255 236 237 260 282
263 259 253 249 248 243 244 227 230 226 225 226 220 217 214 213 213 214 215 214 208 206 205 203 208 205 203 234 222 215 239 210 208 200 196 194 196 187 201 189 177 216 220 266 250 238 268
258 257 252 251 248 242 243 244 231 227 221 221 217 215 211 208 205 207 207 209 210 208 204 200 197 206 214 220 196 209 224 232 209 204 197 196 192 192 186 139 215 173 137 334 252 232 225
257 258 252 246 244 243 240 245 243 220 222 217 214 212 209 208 207 204 206 204 202 204 199 196 196 201 227 233 215 205 207 193 205 200 206 199 199 206 183 187 129 144 144 176 229 176 214
253 256 253 248 241 238 242 241 233 214 220 217 213 209 207 203 203 202 203 201 198 196 194 182 188 195 232 219 211 205 213 217 188 202 209 212 211 218 198 142 139 212 195 187 291 198 131
256 253 251 248 239 233 237 238 228 219 215 216 211 207 204 199 197 197 193 193 185 184 179 179 191 191 231 206 214 206 202 214 197 188 201 204 198 186 189 182 212 189 209 201 205 212 193
253 245 243 240 235 232 228 229 232 237 205 208 209 203 200 195 191 191 182 166 160 173 183 184 194 154 15 212 201 205 200 194 170 177 183 193 202 208 203 206 213 158 179 207 219 179 141
256 248 235 232 233 231 227 226 226 227 208 208 204 201 196 191 188 186 183 182 184 197 183 208 167 205 101 80 176 202 202 185 176 200 176 178 219 214 189 209 213 184 189 225 303 165 184
253 238 228 225 229 226 224 223 221 221 229 199 199 197 193 187 185 186 190 188 180 144 128 198 221 228 226 234 237 201 195 197 198 198 189 206 218 204 192 192 204 215 210 199 188 105 289
258 230 224 224 221 221 219 222 220 219 223 190 191 192 189 183 180 187 192 184 180 145 81 230 193 225 222 196 245 212 205 195 204 209 190 228 217 188 192 202 188 218 162 183 185 129 231
251 230 216 214 213 219 214 216 214 210 223 188 186 187 185 184 175 185 186 180 175 159 144 215 168 193 195 190 147 209 208 202 208 200 173 203 194 190 190 203 185 213 161 201 198 186 346
235 213 210 207 209 213 211 212 208 210 213 183 183 182 180 179 179 181 178 166 155 147 234 166 145 172 163 199 198 146 186 211 211 205 212 210 224 185 180 140 156 132 109 71 82 128 241
227 209 204 206 207 200 203 205 202 203 181 177 177 177 179 173 166 167 165 155 156 208 270 197 176 173 187 188 200 197 191 198 197 215 188 202 194 136 157 142 142 188 177 176 210 209 247
217 197 190 193 194 197 199 197 193 193 179 176 172 172 173 174 175 165 155 149 184 203 199 260 157 174 195 171 204 203 192 211 217 194 179 187 190 182 180 190 183 195 198 172 196 194 213
179 169 178 184 189 194 192 186 190 180 171 166 165 156 159 166 170 162 151 179 194 192 162 150 94 176 204 196 185 188 211 210 213 199 182 190 211 183 182 181 159 190 202 192 98 25 81
187 182 178 183 185 185 186 189 187 167 163 158 146 152 158 165 168 163 161 177 172 169 96 128 170 189 198 189 187 192 197 213 214 208 223 191 175 186 188 124 221 182 178 187 197 158 249
186 184 186 186 184 180 185 185 161 161 157 150 139 136 155 162 160 154 184 205 187 186 158 143 182 177 235 184 205 186 215 222 206 212 208 214 216 186 151 201 187 169 189 207 207 166 189
181 171 176 183 172 170 166 157 156 155 145 141 134 108 160 159 135 114 157 174 168 163 207 138 144 173 176 172 75 220 215 210 198 201 200 204 205 191 202 161 176 197 204 195 202 210 228
126 154 169 180 178 174 150 152 152 149 150 143 108 98 154 156 157 159 118 169 174 155 179 168 192 203 207 174 196 205 245 249 210 193 197 183 217 178 175 216 30 203 211 200 221 73 216
109 123 125 135 145 146 146 150 149 150 150 137 118 118 137 159 136 133 143 190 183 198 159 149 178 188 205 221 221 234 239 257 202 203 201 183 203 199 202 200 186 187 199 200 203 220 229
100 115 130 134 142 149 153 150 148 151 152 142 98 122 151 175 168 111 129 163 160 192 204 192 215 200 174 230 221 230 232 253 227 204 214 211 208 208 213 202 178 206 206 202 207 222 214
105 114 125 131 131 144 149 155 159 153 147 152 113 130 127 106 142 137 181 215 178 258 169 209 216 159 219 232 221 236 195 208 232 197 205 209 191 153 164 176 197 200 199 208 219 231 233
101 120 131 134 142 150 154 159 163 157 155 133 107 123 140 139 136 170 211 189 190 167 239 210 191 228 241 242 243 263 254 255 244 241 209 212 169 175 208 184 159 206 197 199 210 220 216
120 129 135 144 154 153 161 166 154 158 163 139 135 126 106 158 175 201 128 191 235 212 221 190 211 239 273 268 309 274 252 244 244 271 202 187 200 179 154 131 201 220 199 203 207 219 222
137 133 138 150 149 153 148 154 166 155 135 141 129 119 114 97 148 152 211 224 218 243 242 243 249 244 270 295 280 265 233 252 258 237 197 189 182 131 166 194 328 279 216 193 187 226 217
134 146 142 146 151 155 159 170 176 166 127 130 109 93 89 111 193 165 173 193 203 208 295 245 271 269 238 229 219 229 246 187 216 170 210 196 192 185 166 179 203 233 141 183 108 262 207
135 149 153 147 153 155 161 170 183 190 189 187 105 88 83 96 165 178 192 201 189 199 232 274 262 229 207 212 228 216 242 256 172 179 179 190 186 194 179 169 272 239 147 144 150 235 216
139 145 148 156 144 152 160 173 179 189 203 214 215 241 225 168 188 201 218 215 201 188 216 333 325 224 206 208 207 178 209 239 148 175 170 161 164 167 122 135 257 160 152 168 210 194 110
139 156 150 136 138 146 155 160 166 179 193 204 213 218 215 210 175 215 228 243 250 250 255 214 266 280 270 225 202 152 179 249 171 175 188 171 191 171 201 206 282 171 181 188 179 183 215
Wind_Speed_850mb
83 85 90 92 92 92 119 111 103 97 91 87 82 82 76 73 70 65 62 59 55 53 55 52 54 48 42 50 50 31 21 56 57 50 46 41 44 16 10 16 16 6 7 18 32 25 13
89 89 87 98 92 104 94 115 109 102 98 90 87 86 80 75 73 67 65 64 54 50 49 48 47 48 48 28 39 65 47 56 62 60 51 52 35 34 15 16 16 19 24 12 20 41 19
90 89 89 89 90 95 99 92 109 113 102 95 93 89 83 75 70 65 60 58 60 54 49 43 37 52 47 60 17 59 36 55 71 67 63 58 31 45 15 8 17 10 8 6 19 18 10
86 88 88 98 95 84 105 84 90 113 104 98 97 91 88 80 71 65 62 54 50 52 48 43 36 36 37 66 33 38 52 25 64 63 60 55 52 35 18 6 9 10 9 8 9 22 16
80 86 87 84 78 97 78 78 76 123 111 104 100 93 89 81 73 65 63 55 48 46 44 37 38 32 18 52 57 47 70 53 41 62 57 52 52 15 21 11 2 10 9 11 7 32 7
84 83 80 89 88 81 100 75 75 106 117 112 99 94 89 84 74 65 60 53 41 37 37 34 26 17 38 47 69 70 58 65 56 54 46 38 30 10 11 15 25 11 24 9 17 13 12
96 90 85 85 83 83 83 93 105 76 107 111 97 95 92 87 78 69 65 54 37 19 58 34 26 13 26 43 47 70 59 52 41 54 23 32 18 38 54 38 15 15 12 15 7 10 9
99 103 93 93 90 89 87 83 96 71 87 112 98 98 94 89 81 76 73 74 66 25 23 52 20 62 14 10 26 57 75 40 26 35 33 15 42 57 26 25 23 12 17 20 7 11 14
117 107 108 98 102 95 86 87 91 89 80 121 102 101 95 92 82 80 83 71 57 34 13 23 64 34 25 41 16 58 73 64 23 35 44 41 43 35 32 28 31 31 26 10 3 5 3
81 110 120 106 102 104 88 87 84 88 83 112 106 104 99 92 82 86 81 70 62 24 8 8 22 44 44 26 18 43 78 59 17 43 44 25 41 44 36 37 28 39 11 8 7 7 7
65 79 123 112 111 96 94 86 86 92 94 110 109 104 104 104 77 90 81 72 50 26 7 13 19 20 63 33 19 46 64 71 46 26 20 38 37 45 50 57 45 21 19 12 5 5 1
42 69 98 101 102 96 97 87 81 84 99 116 113 107 103 92 67 80 71 70 55 10 15 8 19 31 34 54 20 16 45 72 48 35 34 19 21 24 16 8 19 13 11 8 4 3 16
45 66 82 99 101 99 96 89 87 78 93 115 113 106 106 96 80 81 85 73 14 14 6 10 12 29 48 35 43 18 34 46 24 25 24 47 28 11 38 22 11 18 18 7 14 11 20
28 58 76 91 92 95 94 92 81 75 115 115 109 107 95 90 89 96 86 20 14 10 15 3 9 22 43 26 40 49 29 45 54 36 13 28 20 38 35 36 31 58 45 11 18 15 13
32 51 64 80 84 87 85 82 82 103 121 118 111 100 91 77 92 94 76 30 16 14 16 17 4 18 24 35 15 37 57 53 49 35 21 24 20 39 30 13 30 28 31 19 11 5 6
45 55 61 69 77 80 90 91 79 132 128 124 98 90 76 82 95 93 23 16 8 8 8 7 15 14 19 31 29 40 39 46 44 54 40 13 14 44 12 13 2 30 32 21 4 10 10
47 51 62 70 74 81 91 78 124 133 133 118 90 39 84 99 95 52 26 13 8 15 15 11 13 12 7 13 32 25 24 27 58 45 48 11 7 14 23 32 40 17 33 17 10 11 11
49 56 66 74 87 82 97 131 137 134 125 110 48 10 96 90 13 4 9 14 12 11 26 4 4 9 12 12 4 39 39 38 61 63 66 58 16 26 55 10 3 41 39 40 24 32 7
68 63 39 93 98 84 125 137 134 135 123 94 27 24 68 72 13 10 2 6 13 16 14 13 13 13 11 12 9 21 29 43 39 51 50 33 14 14 19 7 7 29 33 45 22 7 26
61 76 93 115 119 117 127 123 131 119 94 74 35 10 16 20 9 15 12 5 7 11 8 9 9 15 13 15 12 11 9 16 46 59 91 49 14 47 33 59 47 36 66 55 48 30 46
60 64 81 98 128 124 111 129 120 98 82 65 13 5 11 15 12 10 8 15 13 12 12 30 9 23 13 10 14 18 19 11 43 66 59 32 38 34 47 37 28 43 49 49 55 63 33
53 62 65 65 103 97 101 110 112 93 66 39 14 16 17 8 36 13 13 12 18 6 17 11 14 11 23 31 29 12 15 15 36 37 52 25 20 13 9 19 43 46 43 50 46 57 44
51 52 60 64 91 83 89 101 96 79 50 18 20 33 30 19 14 16 10 9 14 11 13 14 14 23 36 35 45 50 39 36 33 34 50 19 17 28 37 9 23 19 49 56 57 57 58
40 49 52 59 67 78 88 81 82 61 32 24 43 35 15 8 18 19 8 18 13 13 12 6 30 24 12 30 39 44 53 50 31 41 48 29 25 12 10 21 30 16 34 48 61 59 57
40 43 45 55 62 61 65 82 69 49 27 25 40 18 10 5 10 5 21 6 18 29 25 21 36 37 43 29 18 20 8 8 26 36 52 50 31 7 13 23 6 9 17 60 47 64 58
32 46 49 58 58 57 59 68 73 54 34 36 28 26 17 11 11 9 10 14 8 6 8 14 45 49 30 10 12 13 14 10 13 15 30 41 44 19 11 16 28 44 19 40 7 38 37
51 55 51 51 53 50 49 52 60 62 42 20 13 17 13 11 9 17 8 11 10 9 7 10 11 9 55 13 12 12 13 10 17 22 20 29 22 27 19 7 14 13 25 66 26 40 47
51 53 51 61 48 41 39 42 38 38 42 36 22 16 4 5 12 20 18 17 11 8 4 3 12 14 9 16 11 8 7 11 7 14 29 16 19 9 8 6 26 28 50 49 35 15 8
53 52 59 56 41 38 34 31 28 29 28 27 22 25 22 10 5 8 17 19 21 21 15 6 11 10 9 9 7 5 6 8 11 16 6 15 17 16 22 26 2 78 20 34 36 17 28
Wind_Direction_850mb
263 258 251 250 248 244 239 234 230 230 227 226 224 219 217 215 217 216 214 214 210 207 208 208 208 201 195 211 219 218 225 207 202 199 193 189 181 179 168 172 153 234 255 236 237 260 282
263 259 253 249 248 243 244 227 230 226 225 226 220 217 214 213 213 214 215 214 208 206 205 203 208 205 203 234 222 215 239 210 208 200 196 194 196 187 201 189 177 216 220 266 250 238 268
258 257 252 251 248 242 243 244 231 227 221 221 217 215 211 208 205 207 207 209 210 208 204 200 197 206 214 220 196 209 224 232 209 204 197 196 192 192 186 139 215 173 137 334 252 232 225
257 258 252 246 244 243 240 245 243 220 222 217 214 212 209 208 207 204 206 204 202 204 199 196 196 201 227 233 215 205 207 193 205 200 206 199 199 206 183 187 129 144 144 176 229 176 214
253 256 253 248 241 238 242 241 233 214 220 217 213 209 207 203 203 202 203 201 198 196 194 182 188 195 232 219 211 205 213 217 188 202 209 212 211 218 198 142 139 212 195 187 291 198 131
256 253 251 248 239 233 237 238 228 219 215 216 211 207 204 199 197 197 193 193 185 184 179 179 191 191 231 206 214 206 202 214 197 188 201 204 198 186 189 182 212 189 209 201 205 212 193
253 245 243 240 235 232 228 229 232 237 205 208 209 203 200 195 191 191 182 166 160 173 183 184 194 154 15 212 201 205 200 194 170 177 183 193 202 208 203 206 213 158 179 207 219 179 141
256 248 235 232 233 231 227 226 226 227 208 208 204 201 196 191 188 186 183 182 184 197 183 208 167 205 101 80 176 202 202 185 176 200 176 178 219 214 189 209 213 184 189 225 303 165 184
253 238 228 225 229 226 224 223 221 221 229 199 199 197 193 187 185 186 190 188 180 144 128 198 221 228 226 234 237 201 195 197 198 198 189 206 218 204 192 192 204 215 210 199 188 105 289
258 230 224 224 221 221 219 222 220 219 223 190 191 192 189 183 180 187 192 184 180 145 81 230 193 225 222 196 245 212 205 195 204 209 190 228 217 188 192 202 188 218 162 183 185 129 231
251 230 216 214 213 219 214 216 214 210 223 188 186 187 185 184 175 185 186 180 175 159 144 215 168 193 195 190 147 209 208 202 208 200 173 203 194 190 190 203 185 213 161 201 198 186 346
235 213 210 207 209 213 211 212 208 210 213 183 183 182 180 179 179 181 178 166 155 147 234 166 145 172 163 199 198 146 186 211 211 205 212 210 224 185 180 140 156 132 109 71 82 128 241
227 209 204 206 207 200 203 205 202 203 181 177 177 177 179 173 166 167 165 155 156 208 270 197 176 173 187 188 200 197 191 198 197 215 188 202 194 136 157 142 142 188 177 176 210 209 247
217 197 190 193 194 197 199 197 193 193 179 176 172 172 173 174 175 165 155 149 184 203 199 260 157 174 195 171 204 203 192 211 217 194 179 187 190 182 180 190 183 195 198 172 196 194 213
179 169 178 184 189 194 192 186 190 180 171 166 165 156 159 166 170 162 151 179 194 192 162 150 94 176 204 196 185 188 211 210 213 199 182 190 211 183 182 181 159 190 202 192 98 25 81
187 182 178 183 185 185 186 189 187 167 163 158 146 152 158 165 168 163 161 177 172 169 96 128 170 189 198 189 187 192 197 213 214 208 223 191 175 186 188 124 221 182 178 187 197 158 249
186 184 186 186 184 180 185 185 161 161 157 150 139 136 155 162 160 154 184 205 187 186 158 143 182 177 235 184 205 186 215 222 206 212 208 214 216 186 151 201 187 169 189 207 207 166 189
181 171 176 183 172 170 166 157 156 155 145 141 134 108 160 159 135 114 157 174 168 163 207 138 144 173 176 172 75 220 215 210 198 201 200 204 205 191 202 161 176 197 204 195 202 210 228
126 154 169 180 178 174 150 152 152 149 150 143 108 98 154 156 157 159 118 169 174 155 179 168 192 203 207 174 196 205 245 249 210 193 197 183 217 178 175 216 30 203 211 200 221 73 216
109 123 125 135 145 146 146 150 149 150 150 137 118 118 137 159 136 133 143 190 183 198 159 149 178 188 205 221 221 234 239 257 202 203 201 183 203 199 202 200 186 187 199 200 203 220 229
100 115 130 134 142 149 153 150 148 151 152 142 98 122 151 175 168 111 129 163 160 192 204 192 215 200 174 230 221 230 232 253 227 204 214 211 208 208 213 202 178 206 206 202 207 222 214
105 114 125 131 131 144 149 155 159 153 147 152 113 130 127 106 142 137 181 215 178 258 169 209 216 159 219 232 221 236 195 208 232 197 205 209 191 153 164 176 197 200 199 208 219 231 233
101 120 131 134 142 150 154 159 163 157 155 133 107 123 140 139 136 170 211 189 190 167 239 210 191 228 241 242 243 263 254 255 244 241 209 212 169 175 208 184 159 206 197 199 210 220 216
120 129 135 144 154 153 161 166 154 158 163 139 135 126 106 158 175 201 128 191 235 212 221 190 211 239 273 268 309 274 252 244 244 271 202 187 200 179 154 131 201 220 199 203 207 219 222
137 133 138 150 149 153 148 154 166 155 135 141 129 119 114 97 148 152 211 224 218 243 242 243 249 244 270 295 280 265 233 252 258 237 197 189 182 131 166 194 328 279 216 193 187 226 217
134 146 142 146 151 155 159 170 176 166 127 130 109 93 89 111 193 165 173 193 203 208 295 245 271 269 238 229 219 229 246 187 216 170 210 196 192 185 166 179 203 233 141 183 108 262 207
135 149 153 147 153 155 161 170 183 190 189 187 105 88 83 96 165 178 192 201 189 199 232 274 262 229 207 212 228 216 242 256 172 179 179 190 186 194 179 169 272 239 147 144 150 235 216
139 145 148 156 144 152 160 173 179 189 203 214 215 241 225 168 188 201 218 215 201 188 216 333 325 224 206 208 207 178 209 239 148 175 170 161 164 167 122 135 257 160 152 168 210 194 110
139 156 150 136 138 146 155 160 166 179 193 204 213 218 215 210 175 215 228 243 250 250 255 214 266 280 270 225 202 152 179 249 171 175 188 171 191 171 201 206 282 171 181 188 179 183 215